Temperature
28 29 30 31 31 31 31 31 31 31 31 31 31 31 30 29 28 28 27 26 25 24 23 21 21 21 21 21 20 20 20 20 19 19 18 18 18 18 18 18 18 18 18 17
28 29 30 30 30 30 30 31 31 30 30 31 31 31 31 30 29 28 27 26 25 24 23 21 21 21 21 21 21 20 20 20 19 19 19 19 18 18 18 18 18 18 18 18
29 30 29 29 29 29 30 30 31 30 30 31 31 31 30 30 28 28 27 27 26 24 23 22 21 21 21 21 21 20 20 20 20 19 19 18 18 18 18 18 18 18 18 18
29 29 28 29 29 29 30 30 30 30 30 31 30 31 31 30 30 29 28 27 26 25 24 23 22 21 21 21 20 20 20 20 20 19 19 18 18 18 18 18 18 18 18 18
28 28 28 28 29 29 30 30 30 30 30 31 31 30 31 30 30 30 29 27 26 25 24 23 22 21 21 21 20 20 20 20 19 19 19 18 18 18 18 18 18 18 18 18
29 29 29 30 30 30 29 29 29 30 31 29 30 30 31 31 30 30 29 27 26 25 24 23 22 21 21 20 20 20 20 20 19 19 19 18 18 18 18 18 18 18 18 18
27 28 29 29 29 29 29 29 29 29 29 29 30 29 31 31 30 29 28 27 25 24 23 22 21 21 21 20 20 20 20 20 19 19 18 18 18 18 18 18 17 18 18 17
27 28 29 29 30 29 29 30 29 29 29 30 29 30 31 30 28 27 27 26 25 24 23 22 21 21 21 20 20 20 19 19 19 19 18 18 18 18 17 18 17 17 17 17
28 29 29 29 30 30 29 30 32 31 30 30 30 30 30 29 29 28 27 26 25 24 23 22 21 21 20 20 20 20 19 19 19 18 18 18 18 18 17 17 17 17 17 17
29 28 29 29 29 29 30 31 30 30 28 28 29 29 30 30 29 28 27 26 25 24 23 22 21 21 20 20 19 19 19 19 19 18 18 18 18 18 18 17 17 17 17 17
29 28 28 28 28 29 28 29 30 30 30 29 29 30 31 30 29 28 27 26 24 24 23 22 21 20 20 19 19 19 19 18 18 18 18 18 17 17 17 17 17 17 17 17
28 28 28 28 29 30 30 30 29 29 28 29 29 30 30 30 29 28 26 25 24 23 22 21 20 20 19 19 19 18 18 18 18 18 18 18 18 17 17 17 17 17 17 17
27 27 27 27 28 28 29 30 30 30 30 29 29 30 28 28 28 27 25 24 23 22 21 21 20 19 19 18 18 18 18 18 18 18 18 17 17 17 17 17 17 17 17 16
27 27 27 28 28 29 28 29 29 30 29 29 29 30 29 29 28 27 25 23 22 21 21 20 19 19 18 18 18 18 18 17 17 17 17 17 17 17 17 16 16 16 16 16
27 27 27 28 29 29 29 29 29 29 30 30 30 30 30 29 28 26 24 23 22 21 21 20 19 18 18 18 18 18 17 17 17 17 17 17 17 16 16 16 16 16 16 15
25 26 27 27 28 28 28 29 29 29 30 30 30 30 30 28 26 25 24 23 22 21 20 19 19 18 18 18 17 17 17 17 17 17 16 16 16 16 16 16 15 15 15 15
25 25 26 27 27 27 27 28 29 29 29 30 29 30 28 27 26 24 23 22 22 21 20 19 18 18 17 17 17 17 17 17 17 16 16 16 16 15 15 15 15 15 15 15
24 25 26 27 26 25 28 29 29 29 29 29 29 29 28 26 25 23 22 22 21 21 20 19 18 17 17 17 17 17 16 16 16 16 15 15 15 15 15 15 15 15 14 14
23 24 26 26 26 27 27 27 28 28 28 28 28 28 26 24 24 23 22 21 20 20 19 18 18 17 17 17 17 16 16 16 16 15 15 15 15 15 15 15 14 14 14 14
22 23 25 26 26 26 27 27 26 27 27 27 27 26 25 24 26 25 21 20 19 19 18 17 17 17 17 17 16 16 16 15 15 15 15 15 15 15 14 14 14 14 13 13
23 23 24 25 25 27 26 25 25 26 26 24 25 24 24 24 25 22 19 19 18 17 17 17 17 17 16 16 16 16 15 15 15 15 15 15 15 14 14 14 13 13 13 12
24 24 24 25 25 26 23 25 25 24 22 22 23 23 22 21 20 19 18 17 17 16 16 16 16 16 16 16 16 15 15 15 15 15 14 14 14 14 13 13 13 12 12 12
23 24 25 25 25 22 21 21 20 20 20 21 21 21 20 20 19 18 17 16 16 16 16 16 16 16 15 15 15 15 15 15 14 14 14 14 13 13 13 12 12 12 11 11
21 20 22 22 22 21 20 20 19 19 19 19 19 19 19 19 18 17 16 15 15 15 15 15 15 15 15 15 14 15 14 14 14 13 13 13 12 12 12 11 11 11 11 11
21 21 21 21 21 21 20 19 18 18 18 18 18 19 18 18 17 16 15 15 15 15 15 15 15 15 14 14 14 14 14 13 13 13 12 12 12 12 11 11 11 10 10 10
20 20 21 22 20 20 19 17 17 17 17 17 18 17 17 17 16 15 15 14 14 14 14 14 14 14 14 14 14 13 13 13 12 12 12 11 11 11 10 10 10 10 9 9
Wind_Speed
8 10 11 9 8 4 4 6 5 3 1 4 6 5 4 7 9 10 10 11 12 12 12 12 12 12 11 11 11 11 11 10 9 7 7 7 7 6 6 7 8 9 9 9
9 12 9 6 6 6 7 8 6 4 2 4 5 5 5 6 8 8 10 11 11 11 12 12 12 12 12 12 12 12 12 11 10 8 7 5 5 5 6 6 8 10 10 10
12 5 8 9 9 10 10 9 6 3 3 5 5 7 7 6 7 8 9 10 11 11 12 13 13 12 12 12 12 11 12 11 11 10 8 6 5 5 6 7 7 9 11 11
11 6 9 11 11 10 10 6 5 5 7 5 5 5 6 7 8 8 9 10 10 11 12 12 12 12 12 11 11 11 11 11 11 10 9 9 8 8 7 7 6 8 10 11
10 11 12 13 11 11 5 4 5 6 7 7 6 7 4 6 7 7 7 8 9 10 11 11 11 11 10 10 10 10 10 10 10 10 10 9 9 7 6 6 6 7 8 9
7 8 10 10 8 9 6 6 5 7 8 9 6 7 4 4 4 4 5 7 8 9 10 10 9 9 9 8 9 9 10 10 10 10 10 10 10 9 8 7 7 7 6 7
11 11 9 9 11 11 11 10 8 9 9 7 4 7 4 2 1 1 3 6 8 9 10 10 10 10 9 8 8 7 8 8 9 10 10 10 10 10 9 8 7 6 6 6
14 14 14 13 13 12 15 15 10 7 8 6 6 6 2 2 1 1 3 6 8 9 10 10 10 9 8 8 8 7 7 7 8 8 8 8 8 6 6 7 6 6 6 6
13 11 12 12 11 11 14 14 11 8 7 7 5 4 4 4 4 4 5 7 9 9 10 10 10 9 8 8 7 7 7 6 6 6 6 5 6 5 5 5 6 5 5 5
8 9 11 11 10 7 9 11 8 10 8 9 7 7 5 6 5 5 6 8 9 9 10 10 9 9 8 7 7 6 6 6 5 5 5 4 4 4 3 3 3 4 4 5
10 9 11 13 14 15 11 12 10 10 9 8 6 4 2 3 4 6 7 8 9 9 10 10 9 9 8 8 7 7 6 5 5 4 4 3 2 2 1 1 2 2 3 3
12 9 11 13 8 6 14 14 14 11 9 9 8 3 6 3 4 5 6 8 9 9 9 10 10 9 8 8 8 7 6 6 5 5 5 4 3 2 1 1 1 0 1 1
12 8 11 11 11 10 12 13 15 14 10 10 11 4 7 5 4 5 7 9 10 10 10 10 9 9 8 8 8 7 7 6 6 6 6 5 4 3 2 2 2 2 2 1
9 10 13 13 11 15 15 15 15 15 11 12 12 8 5 6 6 7 8 10 11 11 10 10 10 9 9 9 8 8 7 7 7 7 6 6 5 4 4 4 3 3 2 2
9 11 12 9 5 9 13 15 16 17 15 13 10 10 6 6 7 8 9 11 12 12 12 11 11 10 9 9 8 8 8 7 7 7 7 6 6 5 5 5 4 4 3 3
7 9 11 10 9 10 11 13 15 16 14 13 11 8 3 3 6 9 10 12 12 12 12 12 11 11 10 9 8 8 8 8 7 8 7 6 6 5 5 5 5 4 4 4
9 8 10 12 11 11 14 14 14 13 12 12 12 7 4 5 8 9 11 12 12 12 12 12 11 10 9 9 9 8 8 8 8 7 7 6 6 5 5 5 5 5 5 5
8 9 9 9 10 14 8 6 9 11 10 10 7 4 4 4 5 7 9 10 11 11 12 12 11 11 10 9 9 9 9 8 8 7 7 6 6 6 5 6 6 6 5 6
6 8 8 10 13 11 6 6 8 10 8 6 6 4 4 6 7 6 7 9 10 11 11 11 11 11 10 9 9 10 9 9 8 7 7 6 6 6 6 6 6 5 6 6
7 8 9 10 13 13 8 7 4 7 9 4 5 5 7 9 7 6 9 9 11 11 11 11 11 11 10 9 10 10 10 9 8 7 7 6 6 6 6 6 5 5 6 7
12 10 13 13 12 8 3 4 6 10 3 2 2 5 8 6 1 7 11 10 11 12 12 12 12 10 9 9 10 10 10 9 8 8 7 7 7 7 6 6 5 6 6 7
11 11 12 12 13 8 4 5 5 1 4 3 0 3 5 4 6 11 12 11 12 12 12 12 11 10 9 9 9 10 10 9 9 9 9 8 7 6 6 7 6 6 6 7
7 4 5 5 3 5 2 1 3 3 3 2 1 2 5 7 8 11 11 11 11 12 11 11 11 11 9 8 9 10 10 9 10 10 9 9 8 8 7 7 7 6 5 5
4 1 3 3 2 1 1 1 2 2 3 2 1 2 6 8 10 11 11 11 11 10 10 10 11 11 9 8 9 10 10 10 10 10 9 9 8 9 8 7 6 6 5 5
3 4 5 5 3 2 1 2 3 3 2 1 1 3 6 8 10 11 11 11 10 10 9 9 10 10 10 9 10 10 10 11 11 11 10 9 9 9 9 9 8 8 8 6
6 6 6 4 1 2 0 3 3 2 1 1 2 4 6 8 10 11 11 11 10 10 9 9 10 10 10 10 10 9 9 10 11 10 9 8 8 8 9 10 11 17 13 15
Wind_Direction
191 212 212 206 221 248 217 218 201 162 164 233 234 236 197 188 199 198 192 189 191 192 184 184 189 190 189 191 193 195 198 194 196 201 208 211 216 218 219 220 215 214 217 216
195 217 211 193 200 214 217 220 204 171 176 245 243 240 207 198 205 207 201 195 193 188 183 183 190 193 195 195 195 195 200 196 199 202 208 215 220 226 225 225 215 220 220 222
211 185 180 192 196 208 218 227 220 208 203 216 248 225 202 194 205 206 207 202 195 191 187 186 192 196 196 195 196 199 200 197 201 203 205 207 208 223 222 222 220 220 222 224
217 175 187 200 204 213 213 215 222 218 231 215 240 251 181 193 202 203 202 200 197 193 191 190 191 194 197 198 195 197 197 199 199 201 208 210 218 222 223 222 224 223 224 228
201 192 197 208 207 211 209 175 211 226 240 248 223 261 189 182 213 201 194 195 197 193 191 189 191 192 194 194 193 194 195 200 201 204 207 216 229 233 233 228 231 229 227 230
195 192 209 213 202 200 172 176 191 226 238 239 232 256 242 194 217 199 183 185 189 184 182 180 180 177 180 181 186 190 191 197 200 204 210 218 230 236 238 237 237 228 226 230
199 199 199 200 185 186 201 205 207 215 222 230 186 246 258 77 95 231 192 177 174 173 172 171 172 171 170 175 179 181 186 193 198 203 210 218 228 232 235 240 240 238 233 231
197 199 196 198 204 195 208 218 224 230 228 209 187 239 213 107 143 184 173 162 161 164 166 167 168 168 166 169 172 174 180 184 189 196 205 214 223 229 235 241 247 242 246 244
204 199 180 196 207 217 204 222 237 244 250 245 215 222 216 173 177 165 159 160 159 160 162 162 161 161 160 163 169 173 173 174 179 184 194 205 213 225 234 240 244 248 249 250
209 196 179 179 188 214 232 212 215 232 233 238 226 230 228 189 184 166 164 163 157 157 157 155 154 154 153 154 158 160 160 160 166 173 183 186 194 208 221 243 249 256 262 266
211 201 178 184 200 193 193 204 214 228 238 246 236 217 145 175 169 170 163 160 157 155 153 149 147 145 144 143 144 145 142 141 142 146 150 145 149 159 183 220 251 258 267 268
206 213 196 193 190 227 210 209 206 215 221 241 262 222 113 143 156 158 155 152 150 146 142 140 139 138 140 140 139 137 137 133 128 128 126 122 115 117 130 99 3 351 314 305
187 204 196 191 196 204 215 214 217 226 226 230 243 227 129 156 168 156 155 153 151 147 141 139 140 142 140 136 134 133 134 128 128 127 119 112 106 101 91 72 52 51 49 27
199 211 221 214 203 194 203 208 216 221 226 229 238 252 182 188 187 167 159 158 154 150 146 144 141 139 135 131 131 130 125 125 125 121 118 111 105 99 90 83 71 59 58 53
205 212 221 238 212 202 206 207 209 222 234 242 240 245 243 209 192 169 162 160 158 157 154 151 146 140 137 134 134 129 124 122 122 119 113 108 106 101 95 88 81 71 64 61
208 217 211 216 210 213 216 212 211 221 232 242 249 246 220 172 166 165 166 166 165 163 158 153 148 143 140 139 137 132 128 124 121 115 110 106 105 103 98 93 87 80 73 66
194 206 209 211 201 212 220 215 213 217 225 233 237 234 172 179 179 174 171 172 170 164 159 154 150 146 142 142 140 135 131 127 122 115 111 108 105 98 94 92 86 80 75 73
202 207 213 212 196 221 219 204 219 223 226 233 242 221 186 185 173 172 172 170 165 161 156 152 149 143 140 140 137 132 130 127 121 115 111 109 106 100 91 83 78 80 79 77
209 209 217 215 215 220 198 194 207 213 219 222 226 197 158 140 147 155 157 162 159 155 149 147 146 140 136 136 136 135 131 126 120 113 108 104 104 102 95 87 79 78 80 79
188 217 223 218 226 224 201 168 191 217 217 193 212 190 170 170 197 173 151 149 145 140 140 139 137 133 132 133 135 133 129 123 117 112 106 99 96 96 93 87 85 85 84 84
186 199 218 219 225 224 121 147 184 211 199 63 209 190 185 199 288 130 143 140 138 137 136 134 133 131 130 133 133 130 126 121 118 115 108 100 96 94 94 91 86 88 90 88
201 200 208 218 225 212 104 176 199 26 22 14 326 187 182 154 122 133 138 137 137 135 135 135 132 127 127 133 133 129 124 123 121 115 109 102 97 93 93 93 90 90 93 96
220 236 219 221 217 78 87 34 12 353 342 346 346 175 164 153 143 141 138 135 134 135 135 134 132 128 128 133 135 128 124 125 121 114 108 103 96 89 87 87 88 91 91 93
191 231 234 222 181 96 65 34 12 351 336 326 302 184 168 159 151 146 139 135 134 133 132 133 133 132 128 127 127 126 128 127 122 116 114 111 104 97 88 82 78 74 71 82
221 202 215 221 217 216 158 52 15 4 8 28 145 168 167 157 153 148 142 139 137 131 131 134 132 129 128 127 125 128 132 133 128 124 122 117 110 104 93 79 59 67 60 53
226 228 234 229 206 263 292 356 348 352 12 107 134 142 151 153 150 145 141 138 134 132 132 132 132 132 132 131 128 130 136 138 136 132 130 127 123 118 114 108 89 60 63 61
Height
1512 1510 1507 1504 1504 1502 1503 1505 1507 1507 1507 1507 1507 1507 1508 1513 1516 1518 1522 1526 1529 1532 1536 1538 1540 1542 1544 1546 1548 1550 1552 1554 1555 1557 1559 1561 1562 1563 1564 1565 1566 1568 1569 1571
1511 1507 1503 1505 1507 1508 1507 1508 1508 1508 1508 1507 1507 1506 1505 1509 1513 1516 1519 1523 1526 1530 1533 1535 1537 1540 1542 1544 1546 1548 1550 1552 1553 1555 1557 1559 1560 1561 1562 1563 1564 1565 1567 1568
1503 1503 1505 1508 1509 1510 1508 1507 1507 1509 1508 1506 1507 1507 1505 1507 1511 1515 1517 1520 1523 1527 1530 1532 1535 1537 1539 1541 1543 1545 1547 1549 1550 1552 1555 1556 1557 1558 1559 1560 1561 1562 1564 1566
1501 1504 1507 1507 1507 1507 1510 1505 1507 1509 1510 1507 1509 1512 1504 1503 1506 1510 1513 1517 1520 1524 1527 1530 1532 1534 1536 1538 1540 1542 1544 1546 1548 1550 1552 1553 1554 1555 1556 1557 1559 1560 1561 1563
1501 1503 1506 1506 1504 1506 1504 1506 1507 1507 1507 1508 1507 1511 1501 1501 1504 1505 1509 1514 1517 1521 1524 1527 1529 1531 1534 1536 1537 1539 1541 1543 1545 1547 1548 1550 1551 1553 1554 1555 1556 1557 1558 1560
1497 1501 1502 1500 1501 1504 1506 1508 1509 1507 1505 1518 1509 1513 1507 1496 1500 1502 1506 1511 1515 1518 1521 1524 1527 1529 1531 1533 1535 1536 1537 1539 1541 1543 1545 1547 1548 1550 1551 1552 1553 1554 1555 1556
1502 1500 1499 1500 1502 1505 1506 1510 1519 1521 1519 1515 1506 1512 1504 1496 1499 1502 1505 1509 1513 1516 1519 1522 1525 1527 1529 1530 1532 1534 1535 1536 1538 1540 1542 1544 1546 1547 1548 1549 1550 1551 1552 1553
1501 1501 1496 1496 1497 1500 1501 1501 1514 1524 1520 1509 1510 1510 1497 1497 1501 1504 1505 1508 1512 1515 1517 1520 1523 1525 1527 1529 1531 1532 1533 1534 1536 1538 1540 1542 1543 1545 1545 1546 1547 1548 1549 1550
1490 1492 1490 1492 1493 1494 1498 1498 1489 1500 1506 1511 1504 1501 1496 1496 1499 1502 1505 1507 1510 1513 1516 1519 1522 1525 1527 1528 1530 1531 1532 1534 1535 1536 1538 1540 1541 1542 1543 1543 1544 1545 1545 1546
1482 1491 1489 1492 1495 1496 1491 1490 1498 1502 1518 1520 1510 1506 1499 1495 1497 1500 1503 1506 1510 1513 1516 1519 1522 1524 1526 1528 1529 1530 1531 1533 1534 1536 1537 1538 1539 1540 1540 1541 1541 1542 1542 1543
1480 1489 1491 1491 1493 1493 1497 1496 1495 1496 1498 1512 1515 1505 1487 1491 1494 1498 1502 1506 1510 1513 1516 1519 1521 1523 1525 1527 1528 1529 1531 1532 1533 1535 1536 1537 1538 1538 1539 1539 1539 1540 1540 1540
1481 1483 1488 1487 1485 1484 1485 1488 1493 1504 1508 1504 1503 1500 1488 1491 1494 1498 1502 1507 1510 1513 1516 1519 1521 1523 1525 1527 1528 1529 1531 1532 1533 1534 1535 1536 1537 1537 1538 1538 1538 1538 1538 1538
1482 1486 1496 1497 1495 1491 1488 1485 1485 1487 1492 1500 1505 1499 1490 1492 1495 1499 1502 1506 1510 1513 1516 1518 1521 1523 1525 1527 1528 1529 1531 1532 1533 1534 1535 1536 1536 1537 1537 1537 1537 1537 1537 1537
1481 1482 1485 1488 1483 1480 1487 1487 1485 1486 1495 1497 1496 1490 1488 1490 1493 1498 1502 1506 1509 1513 1516 1518 1521 1523 1525 1526 1528 1530 1531 1532 1534 1534 1535 1535 1536 1536 1537 1537 1537 1537 1536 1536
1480 1481 1479 1475 1473 1475 1479 1482 1484 1486 1484 1488 1486 1486 1484 1486 1491 1497 1501 1505 1509 1512 1515 1518 1520 1523 1525 1526 1528 1530 1531 1533 1534 1535 1535 1535 1536 1536 1537 1537 1537 1536 1536 1535
1480 1479 1479 1481 1477 1478 1480 1478 1480 1482 1481 1481 1482 1483 1482 1487 1492 1496 1500 1504 1507 1511 1514 1517 1520 1522 1524 1526 1528 1530 1531 1533 1534 1535 1536 1536 1537 1537 1537 1537 1537 1536 1535 1535
1478 1481 1483 1481 1478 1482 1486 1477 1478 1479 1478 1479 1482 1481 1484 1488 1492 1495 1499 1502 1506 1509 1513 1516 1519 1521 1524 1526 1528 1530 1531 1533 1534 1535 1536 1537 1537 1537 1537 1537 1536 1536 1535 1535
1479 1481 1479 1477 1485 1496 1476 1470 1472 1475 1476 1476 1477 1479 1484 1488 1492 1496 1499 1502 1505 1509 1512 1515 1518 1521 1523 1526 1528 1529 1531 1533 1534 1535 1536 1537 1537 1537 1537 1537 1537 1537 1536 1535
1480 1480 1477 1477 1483 1480 1475 1473 1473 1476 1477 1477 1478 1481 1486 1489 1493 1496 1499 1502 1505 1508 1511 1514 1517 1520 1522 1525 1527 1529 1531 1533 1534 1535 1536 1537 1537 1537 1537 1537 1537 1537 1537 1536
1481 1480 1478 1478 1483 1485 1473 1471 1475 1477 1480 1478 1480 1482 1486 1489 1488 1492 1498 1501 1504 1507 1510 1513 1516 1519 1521 1524 1527 1529 1530 1532 1534 1535 1536 1537 1537 1537 1537 1538 1538 1538 1538 1537
1478 1480 1478 1477 1478 1470 1470 1474 1477 1484 1481 1481 1481 1483 1486 1487 1487 1492 1496 1500 1503 1506 1509 1512 1516 1518 1521 1524 1526 1528 1530 1532 1533 1535 1536 1537 1537 1538 1538 1538 1538 1539 1539 1539
1470 1471 1476 1474 1478 1475 1475 1474 1475 1479 1482 1482 1483 1484 1487 1489 1490 1492 1496 1499 1502 1505 1508 1512 1515 1518 1521 1523 1526 1528 1529 1531 1533 1534 1536 1537 1537 1538 1538 1539 1539 1539 1540 1540
1468 1468 1464 1468 1472 1476 1478 1478 1481 1482 1482 1483 1484 1485 1487 1489 1491 1493 1496 1499 1503 1505 1508 1512 1514 1517 1520 1523 1526 1527 1529 1531 1532 1534 1535 1537 1537 1538 1539 1539 1540 1541 1541 1542
1472 1476 1473 1473 1473 1477 1479 1480 1481 1482 1483 1483 1484 1485 1487 1489 1491 1494 1496 1499 1502 1506 1509 1512 1515 1517 1520 1523 1525 1527 1529 1530 1532 1534 1535 1537 1538 1539 1539 1541 1542 1542 1542 1543
1472 1474 1472 1474 1476 1478 1479 1481 1482 1482 1482 1483 1484 1485 1487 1489 1491 1493 1496 1499 1502 1505 1509 1512 1515 1517 1520 1522 1524 1526 1529 1531 1533 1534 1536 1537 1539 1540 1540 1541 1541 1542 1542 1542
1474 1474 1473 1471 1477 1478 1480 1481 1482 1482 1482 1483 1484 1485 1487 1489 1491 1494 1497 1500 1503 1506 1509 1512 1515 1517 1520 1522 1524 1526 1528 1531 1533 1535 1536 1538 1540 1541 1542 1542 1543 1543 1544 1545